D2913 Weather Reports


Display with metric or nautical units.
time (UTC)temp
F
wind
direction
speed
MPH
gust
MPH
rain 1hr
in
rain 24hr
in
rain mn
in
humidity
%
barometer
mb
20260508152017 69 0 0.0 0.0 0.00 0.00 0.00 77 1016.3
20260508151516 69 0 0.0 0.0 0.00 0.00 0.00 78 1016.3
20260508151017 68 0 0.0 0.0 0.00 0.00 0.00 78 1016.2
20260508150016 68 0 0.0 0.0 0.00 0.00 0.00 78 1016.2
20260508145516 67 0 0.0 0.0 0.00 0.00 0.00 79 1016.1
20260508145016 67 0 0.0 0.0 0.00 0.00 0.00 78 1016.1
20260508142516 67 0 0.0 0.0 0.00 0.00 0.00 78 1016.3
20260508142017 66 0 0.0 0.0 0.00 0.00 0.00 79 1016.2
20260508141516 66 0 0.0 0.0 0.00 0.00 0.00 79 1016.4
20260508141017 67 0 0.0 0.0 0.00 0.00 0.00 79 1016.5
20260508140017 67 0 0.0 0.0 0.00 0.00 0.00 80 1016.5
20260508135017 66 0 0.0 0.0 0.00 0.00 0.00 80 1016.5
20260508134516 66 0 0.0 0.0 0.00 0.00 0.00 80 1016.5
20260508134016 65 0 0.0 0.0 0.00 0.00 0.00 80 1016.5
20260508133516 66 0 0.0 0.0 0.00 0.00 0.00 79 1016.5
20260508133017 66 0 0.0 0.0 0.00 0.00 0.00 80 1016.7
20260508132516 66 0 0.0 0.0 0.00 0.00 0.00 80 1016.6
20260508132016 66 0 0.0 0.0 0.00 0.00 0.00 80 1016.7
20260508131016 66 0 0.0 0.0 0.00 0.00 0.00 80 1016.6
20260508130017 65 0 0.0 0.0 0.00 0.00 0.00 81 1016.7
20260508125516 65 0 0.0 0.0 0.00 0.00 0.00 81 1016.7
20260508125017 65 0 0.0 0.0 0.00 0.00 0.00 80 1016.5
20260508124516 65 0 0.0 0.0 0.00 0.00 0.00 81 1016.6
20260508124016 65 0 0.0 0.0 0.00 0.00 0.00 81 1016.6
20260508123531 66 0 0.0 0.0 0.00 0.00 0.00 80 1016.7
20260508123016 66 0 0.0 0.0 0.00 0.00 0.00 80 1016.8
20260508122016 66 0 0.0 0.0 0.00 0.00 0.00 80 1016.8
20260508121516 65 0 0.0 0.0 0.00 0.00 0.00 82 1016.7
20260508121016 65 0 0.0 0.0 0.00 0.00 0.00 81 1016.7
20260508120516 65 0 0.0 0.0 0.00 0.00 0.00 81 1016.7
20260508120017 65 0 0.0 0.0 0.00 0.00 0.00 81 1016.6
20260508115516 64 0 0.0 0.0 0.00 0.00 0.00 83 1016.6
20260508115017 63 0 0.0 0.0 0.00 0.00 0.00 83 1016.5
20260508114516 62 0 0.0 0.0 0.00 0.00 0.00 83 1016.4
20260508114017 62 0 0.0 0.0 0.00 0.00 0.00 83 1016.5
20260508113516 63 0 0.0 0.0 0.00 0.00 0.00 83 1016.6
20260508112517 63 0 0.0 0.0 0.00 0.00 0.00 82 1016.7
20260508111516 62 0 0.0 0.0 0.00 0.00 0.00 84 1016.8
20260508111016 62 0 0.0 0.0 0.00 0.00 0.00 84 1016.9
20260508110516 62 0 0.0 0.0 0.00 0.01 0.00 84 1016.9
20260508110017 62 0 0.0 0.0 0.00 0.01 0.00 85 1016.7
20260508105516 62 0 0.0 0.0 0.00 0.01 0.00 83 1016.8
20260508105017 62 0 0.0 0.0 0.00 0.01 0.00 84 1016.8
20260508104516 62 0 0.0 0.0 0.00 0.01 0.00 83 1016.9
20260508104016 63 0 0.0 0.0 0.00 0.01 0.00 84 1017.1
20260508103516 62 0 0.0 0.0 0.00 0.01 0.00 84 1017.0
20260508103016 62 0 0.0 0.0 0.00 0.01 0.00 85 1016.9
20260508102516 61 0 0.0 0.0 0.00 0.01 0.00 85 1016.8
20260508102016 61 0 0.0 0.0 0.00 0.01 0.00 85 1016.9
20260508101016 61 0 0.0 0.0 0.00 0.01 0.00 86 1016.8
20260508100516 60 0 0.0 0.0 0.00 0.01 0.00 87 1016.9
20260508100016 60 0 0.0 0.0 0.00 0.01 0.00 87 1017.0
20260508095517 60 0 0.0 0.0 0.00 0.01 0.00 86 1017.0
20260508095016 60 0 0.0 0.0 0.00 0.01 0.00 87 1017.0
20260508094516 61 0 0.0 0.0 0.00 0.01 0.00 87 1017.3
20260508094016 60 0 0.0 0.0 0.00 0.01 0.00 89 1017.1
20260508093017 58 0 0.0 0.0 0.00 0.01 0.00 89 1017.0
20260508092017 58 0 0.0 0.0 0.00 0.01 0.00 89 1017.0
20260508091016 58 0 0.0 0.0 0.00 0.01 0.00 90 1016.9
20260508090017 58 0 0.0 0.0 0.00 0.01 0.00 89 1016.9
20260508085516 57 0 0.0 0.0 0.00 0.01 0.00 90 1016.7
20260508085017 57 0 0.0 0.0 0.00 0.01 0.00 90 1016.8
20260508084516 57 0 0.0 0.0 0.00 0.01 0.00 90 1016.7
20260508083016 56 0 0.0 0.0 0.00 0.01 0.00 90 1016.6
20260508082516 56 0 0.0 0.0 0.00 0.01 0.00 91 1016.6
20260508082017 55 0 0.0 0.0 0.00 0.01 0.00 91 1016.6
20260508081516 54 0 0.0 0.0 0.00 0.01 0.00 91 1016.4
20260508081016 55 0 0.0 0.0 0.00 0.01 0.00 91 1016.5
20260508080516 55 0 0.0 0.0 0.00 0.01 0.00 90 1016.6
20260508080017 55 0 0.0 0.0 0.00 0.01 0.00 90 1016.7
20260508075016 55 0 0.0 0.0 0.00 0.01 0.00 91 1016.6
20260508074517 55 0 0.0 0.0 0.00 0.01 0.00 91 1016.6
20260508074016 55 0 0.0 0.0 0.00 0.01 0.00 91 1016.7
20260508073516 55 0 0.0 0.0 0.00 0.01 0.00 91 1016.7
20260508073017 55 0 0.0 0.0 0.00 0.01 0.00 91 1016.6
20260508072516 54 0 0.0 0.0 0.00 0.01 0.00 91 1016.6
20260508071016 53 0 0.0 0.0 0.00 0.01 0.00 90 1016.3
20260508070516 53 0 0.0 0.0 0.00 0.01 0.00 90 1016.3
20260508065017 51 0 0.0 0.0 0.00 0.01 0.00 81 1016.0
20260508064517 49 0 0.0 0.0 0.00 0.01 0.00 77 1015.8
20260508064016 49 0 0.0 0.0 0.00 0.01 0.00 73 1015.7
20260508063516 48 0 0.0 0.0 0.00 0.01 0.00 70 1015.3
20260508063017 48 0 0.0 0.0 0.00 0.01 0.00 69 1015.4
20260508062516 48 0 0.0 0.0 0.00 0.01 0.00 68 1015.6
20260508062016 47 0 0.0 0.0 0.00 0.01 0.00 68 1015.3
20260508061543 47 0 0.0 0.0 0.00 0.01 0.00 68 1015.2
20260508061016 46 0 0.0 0.0 0.00 0.01 0.00 68 1015.2
20260508060016 45 0 0.0 0.0 0.00 0.01 0.00 68 1014.9
20260508055016 43 0 0.0 0.0 0.00 0.01 0.00 69 1014.4
20260508054016 41 0 0.0 0.0 0.00 0.01 0.00 72 1014.0
20260508053517 40 0 0.0 0.0 0.00 0.01 0.00 72 1014.1
20260508053016 40 0 0.0 0.0 0.00 0.01 0.00 72 1013.9
20260508052518 40 0 0.0 0.0 0.00 0.01 0.00 73 1013.7
20260508052016 40 0 0.0 0.0 0.00 0.01 0.00 73 1014.0
20260508051545 40 0 0.0 0.0 0.00 0.01 0.00 73 1013.7
20260508051016 39 0 0.0 0.0 0.00 0.01 0.00 73 1013.5
20260508050516 39 0 0.0 0.0 0.00 0.01 0.00 73 1013.4
20260508050016 39 0 0.0 0.0 0.00 0.01 0.00 73 1013.3
20260508045517 39 0 0.0 0.0 0.00 0.01 0.00 74 1013.3
20260508045016 39 0 0.0 0.0 0.00 0.01 0.00 74 1013.1
20260508044516 39 0 0.0 0.0 0.00 0.01 0.00 74 1013.1
20260508044016 38 0 0.0 0.0 0.00 0.01 0.00 74 1013.1
20260508042516 38 0 0.0 0.0 0.00 0.01 0.00 75 1013.0
20260508042016 38 0 0.0 0.0 0.00 0.01 0.00 76 1012.9
20260508041517 37 0 0.0 0.0 0.00 0.01 0.00 76 1012.9
20260508041016 37 0 0.0 0.0 0.00 0.01 0.00 77 1012.8
20260508040516 37 0 0.0 0.0 0.00 0.01 0.00 78 1012.6
20260508040017 37 0 0.0 0.0 0.00 0.01 0.00 79 1012.6
20260508035516 37 0 0.0 0.0 0.00 0.01 0.00 79 1012.6
20260508034517 37 0 0.0 0.0 0.00 0.01 0.00 80 1012.6
20260508034016 37 0 0.0 0.0 0.00 0.01 0.00 80 1012.6
20260508033017 38 0 0.0 0.0 0.00 0.01 0.00 81 1012.7
20260508032516 38 0 0.0 0.0 0.00 0.01 0.00 81 1012.5
20260508032016 38 0 0.0 0.0 0.00 0.01 0.00 81 1012.6
20260508031520 38 0 0.0 0.0 0.00 0.01 0.00 82 1012.5
20260508031016 39 0 0.0 0.0 0.00 0.01 0.00 83 1012.5
20260508030542 39 0 0.0 0.0 0.00 0.01 0.00 84 1012.7
20260508030017 40 0 0.0 0.0 0.00 0.01 0.00 83 1012.9
20260508025519 40 0 0.0 0.0 0.00 0.01 0.00 81 1012.9
20260508025016 40 0 0.0 0.0 0.00 0.01 0.00 81 1012.9
20260508024517 40 0 0.0 0.0 0.00 0.01 0.00 82 1012.9
20260508024017 40 0 0.0 0.0 0.00 0.01 0.00 82 1012.9
20260508023516 41 0 0.0 0.0 0.00 0.01 0.00 82 1013.0
20260508023016 41 0 0.0 0.0 0.00 0.01 0.00 82 1012.9
20260508022516 41 0 0.0 0.0 0.00 0.01 0.00 82 1013.0
20260508021517 41 0 0.0 0.0 0.00 0.01 0.00 82 1012.9
20260508021017 41 0 0.0 0.0 0.00 0.01 0.00 83 1013.0
20260508020516 41 0 0.0 0.0 0.00 0.01 0.00 83 1013.0
20260508020017 41 0 0.0 0.0 0.00 0.01 0.00 84 1013.1
20260508015516 42 0 0.0 0.0 0.00 0.01 0.00 84 1013.1
20260508015016 42 0 0.0 0.0 0.00 0.01 0.00 83 1013.2
20260508014517 42 0 0.0 0.0 0.00 0.01 0.00 83 1013.4
20260508014017 43 0 0.0 0.0 0.00 0.01 0.00 82 1013.3
20260508013516 43 0 0.0 0.0 0.00 0.01 0.00 81 1013.2
20260508013017 43 0 0.0 0.0 0.00 0.01 0.00 82 1013.2
20260508012516 43 0 0.0 0.0 0.00 0.01 0.00 82 1013.2
20260508012017 43 0 0.0 0.0 0.00 0.01 0.00 83 1013.3
20260508011516 42 0 0.0 0.0 0.00 0.01 0.00 84 1013.3
20260508011016 42 0 0.0 0.0 0.00 0.01 0.00 85 1013.3
20260508010016 43 0 0.0 0.0 0.00 0.01 0.00 85 1013.4
20260508005017 43 0 0.0 0.0 0.00 0.01 0.00 85 1013.6
20260508004016 44 0 0.0 0.0 0.00 0.01 0.00 85 1013.5
20260508003016 44 0 0.0 0.0 0.00 0.01 0.00 86 1013.7
20260508001517 44 0 0.0 0.0 0.00 0.01 0.00 86 1013.9
20260508001016 44 0 0.0 0.0 0.00 0.01 0.00 87 1013.9
20260508000017 44 0 0.0 0.0 0.00 0.01 0.00 88 1014.1
20260507235516 45 0 0.0 0.0 0.00 0.01 0.00 88 1014.1
20260507235017 45 0 0.0 0.0 0.00 0.01 0.00 88 1014.2
20260507234517 45 0 0.0 0.0 0.00 0.01 0.00 87 1014.2
20260507234017 45 0 0.0 0.0 0.00 0.01 0.00 87 1014.2
20260507233517 45 0 0.0 0.0 0.00 0.01 0.00 87 1014.3
20260507233016 46 0 0.0 0.0 0.00 0.01 0.00 87 1014.3
20260507232016 46 0 0.0 0.0 0.00 0.01 0.00 87 1014.4
20260507231516 46 0 0.0 0.0 0.00 0.01 0.00 87 1014.5
20260507231017 46 0 0.0 0.0 0.00 0.01 0.00 87 1014.5
20260507230517 46 0 0.0 0.0 0.00 0.01 0.00 87 1014.5
20260507230017 46 0 0.0 0.0 0.00 0.01 0.00 88 1014.6
20260507225516 46 0 0.0 0.0 0.00 0.01 0.00 89 1014.6
20260507224516 47 0 0.0 0.0 0.00 0.01 0.00 88 1014.7
20260507224016 47 0 0.0 0.0 0.00 0.01 0.00 88 1014.7
20260507223516 47 0 0.0 0.0 0.00 0.01 0.00 89 1014.8
20260507223016 47 0 0.0 0.0 0.00 0.01 0.00 89 1014.9
20260507222517 47 0 0.0 0.0 0.00 0.01 0.00 89 1014.9
20260507221517 48 0 0.0 0.0 0.00 0.01 0.00 90 1014.9
20260507221016 48 0 0.0 0.0 0.00 0.01 0.00 90 1015.0
20260507215517 49 0 0.0 0.0 0.00 0.01 0.01 90 1015.1
20260507215016 49 0 0.0 0.0 0.00 0.01 0.01 90 1014.9
20260507214516 49 0 0.0 0.0 0.00 0.01 0.01 91 1015.1
20260507214017 50 0 0.0 0.0 0.00 0.01 0.01 91 1015.0
20260507213516 50 0 0.0 0.0 0.00 0.01 0.01 91 1015.0
20260507213017 50 0 0.0 0.0 0.00 0.01 0.01 91 1015.1
20260507212517 50 0 0.0 0.0 0.00 0.01 0.01 91 1015.1
20260507212017 51 0 0.0 0.0 0.00 0.01 0.01 91 1015.2
20260507211516 51 0 0.0 0.0 0.00 0.01 0.01 91 1015.2
20260507211016 51 0 0.0 0.0 0.00 0.01 0.01 91 1015.3
20260507210516 51 0 0.0 0.0 0.00 0.01 0.01 91 1015.4
20260507210017 51 0 0.0 0.0 0.00 0.01 0.01 91 1015.6
20260507205517 51 0 0.0 0.0 0.00 0.01 0.01 91 1015.3
20260507205017 51 0 0.0 0.0 0.00 0.01 0.01 91 1015.3
20260507204516 51 0 0.0 0.0 0.00 0.01 0.01 91 1015.3
20260507204017 51 0 0.0 0.0 0.00 0.01 0.01 91 1015.3
20260507203516 51 0 0.0 0.0 0.00 0.01 0.01 91 1015.4
20260507202516 51 0 0.0 0.0 0.00 0.01 0.01 91 1015.3
20260507201017 51 0 0.0 0.0 0.00 0.01 0.01 91 1015.1
20260507200516 51 0 0.0 0.0 0.00 0.02 0.01 91 1015.1
20260507200016 51 0 0.0 0.0 0.00 0.02 0.01 91 1015.0
20260507195516 51 0 0.0 0.0 0.00 0.02 0.01 91 1015.0
20260507195017 51 0 0.0 0.0 0.00 0.02 0.01 91 1015.0
20260507194516 51 0 0.0 0.0 0.00 0.02 0.01 91 1015.0
20260507194016 51 0 0.0 0.0 0.00 0.02 0.01 91 1015.0
20260507193516 51 0 0.0 0.0 0.00 0.02 0.01 91 1014.9
20260507192516 51 0 0.0 0.0 0.00 0.02 0.01 91 1014.9
20260507192016 51 0 0.0 0.0 0.00 0.02 0.01 91 1014.8
20260507191516 51 0 0.0 0.0 0.00 0.02 0.01 91 1014.9
20260507191017 51 0 0.0 0.0 0.00 0.02 0.01 91 1014.8
20260507190517 52 0 0.0 0.0 0.00 0.02 0.01 91 1014.8
20260507185517 52 0 0.0 0.0 0.00 0.02 0.01 90 1014.7
20260507184517 53 0 0.0 0.0 0.00 0.02 0.01 90 1014.5
20260507184017 53 0 0.0 0.0 0.00 0.02 0.01 90 1014.7
20260507183516 54 0 0.0 0.0 0.00 0.02 0.01 90 1014.7
20260507182516 55 0 0.0 0.0 0.00 0.02 0.01 89 1014.6
20260507182016 55 0 0.0 0.0 0.00 0.02 0.01 89 1014.6
20260507181516 56 0 0.0 0.0 0.00 0.02 0.01 89 1014.6
20260507181016 56 0 0.0 0.0 0.00 0.02 0.01 88 1014.6
20260507180516 56 0 0.0 0.0 0.00 0.02 0.01 88 1014.6
20260507180017 56 0 0.0 0.0 0.00 0.02 0.01 88 1014.6
20260507175016 57 0 0.0 0.0 0.00 0.02 0.01 88 1014.6
20260507174517 57 0 0.0 0.0 0.00 0.02 0.01 87 1014.6
20260507174017 57 0 0.0 0.0 0.00 0.02 0.01 87 1014.6
20260507173016 57 0 0.0 0.0 0.00 0.02 0.01 88 1014.6
20260507172519 57 0 0.0 0.0 0.00 0.02 0.01 88 1014.5
20260507172016 57 0 0.0 0.0 0.00 0.02 0.01 88 1014.6
20260507171516 57 0 0.0 0.0 0.00 0.02 0.01 87 1014.5
20260507171016 57 0 0.0 0.0 0.00 0.02 0.01 87 1014.6
20260507170516 57 0 0.0 0.0 0.00 0.02 0.01 87 1014.6
20260507170017 58 0 0.0 0.0 0.00 0.02 0.01 86 1014.6
20260507165017 57 0 0.0 0.0 0.00 0.02 0.01 88 1014.5
20260507164516 57 0 0.0 0.0 0.00 0.02 0.01 88 1014.3
20260507164016 57 0 0.0 0.0 0.00 0.02 0.01 88 1014.3
20260507163516 57 0 0.0 0.0 0.00 0.02 0.01 88 1014.4
20260507163016 57 0 0.0 0.0 0.00 0.02 0.01 87 1014.3
20260507162516 57 0 0.0 0.0 0.00 0.02 0.01 87 1014.4
20260507162016 58 0 0.0 0.0 0.00 0.02 0.01 87 1014.3
20260507161516 58 0 0.0 0.0 0.00 0.02 0.01 86 1014.4
20260507160516 58 0 0.0 0.0 0.00 0.02 0.01 86 1014.4
20260507160017 58 0 0.0 0.0 0.00 0.02 0.01 85 1014.5
20260507155516 58 0 0.0 0.0 0.00 0.02 0.01 86 1014.4
20260507155016 58 0 0.0 0.0 0.00 0.02 0.01 85 1014.3
20260507154517 58 0 0.0 0.0 0.00 0.02 0.01 86 1014.3
20260507154017 57 0 0.0 0.0 0.00 0.02 0.01 86 1014.2
20260507153516 57 0 0.0 0.0 0.00 0.02 0.01 86 1014.2